Regional Weather Roundup
Issued by NWS

Home | Current Version | Previous Version | Graphics & Text | Print | Product List | Glossary On
Versions: 1 2 3 4 5 6 7 8 9 10 11 12 13 14 15 16 17 18 19 20 21 22 23 24 25 26 27 28 29 30 31 32 33 34 35 36 37 38 39 40 41 42 43 44 45 46 47 48 49 50
000
ASUS43 KOAX 010102
RWRNE

WEATHER ROUNDUP FOR NEBRASKA
NATIONAL WEATHER SERVICE OMAHA NE
800 PM CDT THU JUL 31 2014

NOTES: SATELLITE DATA IS BEING USED TO AUGMENT CLOUD COVER ABOVE
       12000 FEET.
       "FAIR" INDICATES FEW OR NO CLOUDS BELOW 12,000 FEET WITH NO
       SIGNIFICANT WEATHER AND/OR OBSTRUCTIONS TO VISIBILITY.

  * THESE STATIONS DO NOT REPORT WEATHER SUCH AS RAIN...SNOW OR FOG.

NEZ001>004-019>022-054>056-010200-
NEBRASKA PANHANDLE

CITY           SKY/WX    TMP DP  RH WIND       PRES   REMARKS
SCOTTSBLUFF    SUNNY     83  42  23 SE8       30.14F
ALLIANCE       MOSUNNY   83  44  25 NE9       30.14S
CHADRON        MOSUNNY   83  47  28 NE9       30.11S
KIMBALL        MOSUNNY   78  44  29 E3        30.19S
SIDNEY         SUNNY     83  38  20 NE13      30.17S
$$

NEZ057>060-069>072-079>082-010200-
SOUTHWEST NEBRASKA

CITY           SKY/WX    TMP DP  RH WIND       PRES   REMARKS
NORTH PLATTE   PTCLDY    82  50  32 NE12      30.06R
IMPERIAL       SUNNY     83  49  30 W3        30.09S
LEXINGTON      CLEAR     81  55  41 N8        30.04R
MCCOOK         PTCLDY    84  53  34 NW8       30.04S
OGALLALA       SUNNY     83  45  26 NE5       30.09S
$$

NEZ005>010-023>029-035>040-094-010200-
NORTH CENTRAL NEBRASKA

CITY           SKY/WX    TMP DP  RH WIND       PRES   REMARKS
VALENTINE      SUNNY     85  50  29 NE8       30.06F
AINSWORTH      CLEAR     79  54  41 NE6       30.07S
BROKEN BOW     CLEAR     82  55  39 N9        30.05S
O`NEILL        CLEAR     77  64  62 E9        30.06S
ORD            CLEAR     79  61  53 NE10      30.03R
THEDFORD       CLEAR     83  50  32 N7        30.09R
$$

NEZ041-046>049-061>064-073>077-083>087-010200-
SOUTH CENTRAL NEBRASKA

CITY           SKY/WX    TMP DP  RH WIND       PRES   REMARKS
GRAND ISLAND   CLEAR     84  60  44 N6        30.00S
AURORA         CLEAR     81  64  55 S6        29.99R
HASTINGS       PTCLDY    82  57  42 S12       30.00S
HEBRON         PTCLDY    78  55  44 S6        29.99F
HOLDREGE       CLEAR     82  63  53 CALM      30.02S
KEARNEY *      CLEAR     82  54  36 N10       30.02R
YORK           CLEAR     81  63  54 S6        29.99S
$$

NEZ011>018-030>034-042>045-010200-
NORTHEAST NEBRASKA

CITY           SKY/WX    TMP DP  RH WIND       PRES   REMARKS
NORFOLK        MOCLDY    76  61  59 E8        30.03F
ALBION         CLEAR     73  63  72 NE6       30.02S
BLAIR          MOCLDY    74  60  61 E8        30.01F
COLUMBUS *     MOCLDY    61  61 100 NE10      30.01R
FREMONT        CLOUDY    76  62  61 CALM      30.03R
TEKAMAH        PTCLDY    76  60  57 E7        30.02S
WAYNE          MOCLDY    75  65  70 E5        30.04S
$$

NEZ050>053-065>068-078-088>093-010200-
SOUTHEAST NEBRASKA

CITY           SKY/WX    TMP DP  RH WIND       PRES   REMARKS
LINCOLN        MOCLDY    83  55  38 SE13      29.99F
OMAHA EPPLEY   MOCLDY    78  59  51 E10       30.00F
BEATRICE       CLOUDY    81  59  46 SE7       29.99S
FALLS CITY     MOCLDY    74  58  57 SE7       30.02S
NEBRASKA CITY  MOCLDY    75  59  55 SE8       30.01F
PLATTSMOUTH    MOCLDY    77  56  49 E6        30.01F
$$

NEZ044-045-051>053-067-010200-
OMAHA AREA

CITY           SKY/WX    TMP DP  RH WIND       PRES   REMARKS
OMAHA EPPLEY   MOCLDY    78  59  51 E10       30.00F
BLAIR          MOCLDY    74  60  61 E8        30.01F
FREMONT        CLOUDY    76  62  61 CALM      30.03R
MILLARD        CLOUDY    79  60  52 E7        30.00F
OFFUTT AFB     MOCLDY    76  62  61 E7        30.00F
PLATTSMOUTH    MOCLDY    77  56  49 E6        30.01F
WAHOO          CLOUDY    76  63  63 E5        29.99F
$$


USA.gov is the U.S. government's official web portal to all federal, state and local government web resources and services.